Location: Nairn
(57.5833°N, 3.8667°W)
Time: 02:30:09
(UTC+00:00)

USA 267 - Pass Details

Date: 07 August 2020
Orbit: 1101 x 1106 km, 123.0° (Epoch: 22 September)

Event Time Altitude Azimuth Distance (km) Brightness Sun altitude
Rises 00:31:58 0° 96° (E) 3,922 6.1 -16.0°
Reaches altitude 10° 00:34:27 10° 97° (E) 2,965 5.5 -16.0°
Maximum altitude 00:41:02 85° 187° (S) 1,115 3.2 -16.0°
Drops below altitude 10° 00:47:37 10° 276° (W) 2,970 5.5 -15.9°
Sets 00:50:06 0° 277° (W) 3,929 6.2 -15.8°
